Regional Weather Roundup
Issued by NWS

Home | Current Version | Previous Version | Graphics & Text | Print | Product List | Glossary On
Versions: 1 2 3 4 5 6 7 8 9 10 11 12 13 14 15 16 17 18 19 20 21 22 23 24 25 26 27 28 29 30 31 32 33 34 35 36 37 38 39 40 41 42 43 44 45 46 47 48 49 50
368
ASUS45 KSLC 210610
RWRUT

UTAH REGIONAL WEATHER ROUNDUP
NATIONAL WEATHER SERVICE SALT LAKE CITY UT
1200 AM MDT MON MAY 21 2018

UTZ001>011-023>025-210700-

NORTHERN UTAH

CITY           SKY/WX    TMP DP  RH WIND       PRES   REMARKS
BRIGHAM CITY   PTCLDY    61  45  55 NW5       29.93R
HILL AFB       PTCLDY    58  43  57 NE8       29.93S
LOGAN          MOCLDY    55  45  68 NW7       29.94S
OGDEN          PTCLDY    57  43  59 S7        29.91F
SALT LAKE CITY PTCLDY    58  48  69 CALM      29.91R
TOOELE VALLEY  PTCLDY    52  46  82 S5        29.92F
WENDOVER       MOCLDY    64  41  42 NW6       29.89F
HEBER CITY       N/A     46  39  76 E6        29.99F
WEST JORDAN    PTCLDY    54  45  71 CALM      29.93F

$$

UTZ011>015-024>027-210700-

CENTRAL/NORTHEAST UTAH

CITY           SKY/WX    TMP DP  RH WIND       PRES   REMARKS
PROVO AIRPORT  MOCLDY    56  43  61 S5          N/A
MOAB/CANYONLAN PTCLDY    67  34  29 NE23      29.88F
DELTA          MOCLDY    57  41  54 NE7       29.90S
PRICE          CLOUDY    52  39  61 N6        30.00F
RICHFIELD      CLEAR     52  48  87 CALM      29.98R
ROOSEVELT      CLEAR     50  43  76 W3        30.03S
VERNAL         PTCLDY    53  41  63 W5        30.02R

$$

UTZ013>016-019>022-027-210700-

SOUTHERN UTAH

CITY           SKY/WX    TMP DP  RH WIND       PRES   REMARKS
BRYCE CANYON   PTCLDY    39  35  86 W9        30.08S WCI  33
CEDAR CITY     PTCLDY    56  28  34 SE8       29.94R
MILFORD        PTCLDY    55  35  47 NW6       29.90S
ST GEORGE      MOCLDY    74  27  17 SE6       29.79R
HANKSVILLE     MOCLDY    64  36  34 CALM      29.93S
KANAB          CLEAR     55  30  38 NE3       29.96R
BLANDING         N/A     57  11  16 NE10      30.03S

$$

REGIONAL REPORTS     COLORADO/ARIZONA

CITY           SKY/WX    TMP DP  RH WIND       PRES   REMARKS
CRAIG, CO      MOCLDY    42  39  89 CALM      30.11S
GRAND JUNCTION PTCLDY    60  38  43 CALM      29.98S
RIFLE, CO      PTCLDY    48  39  71 E6        30.06R
MONTROSE, CO   MOCLDY    51  32  48 S3        30.05R
CORTEZ, CO     MOCLDY    48  27  44 E3        29.99R
COLORADO CITY    N/A     52  27  37 SE5       29.95R
PAGE, AZ       CLEAR     72  14  11 S6        29.86R
GRAND CANYON   CLEAR     41  10  28 CALM      30.05S
KINGMAN, AZ    PTCLDY    70  33  25 S10       29.84S
FLAGSTAFF, AZ  MOCLDY    44  13  28 CALM      30.08S

$$

REGIONAL REPORTS    NEVADA/IDAHO/WYOMING

CITY           SKY/WX    TMP DP  RH WIND       PRES   REMARKS
LAS VEGAS, NV  CLOUDY    82  36  19 S10       29.69S
ELY, NY        CLOUDY    49  45  86 NE15      29.99F
ELKO, NV       MOCLDY    52  46  80 E8        29.95S
POCATELLO, ID  CLOUDY    53  48  83 CALM      29.96S
BURLEY, ID     CLOUDY    58  49  72 W3        29.93S
FORT BRIDGER,    N/A     48  35  62 S6        30.10S
EVANSTON, WY   CLOUDY    50  40  68 NE6       30.07S
ROCK SPRINGS,  MOCLDY    53  37  54 S7G17     30.08S
KEMMERER, WY   MOCLDY    45  36  70 N10G16    30.10S

$$




USA.gov is the U.S. government's official web portal to all federal, state and local government web resources and services.